owner,sensor,date,latitude,longitude,vertical_datum,sea_water_practical_salinity,qcFlag 
NERRS,ioos:station:NOAA.NERRS:rkblhwq:1,2017-02-01T00:45:00Z,26.0257,-81.7332,0.94,34.5,1111122 
NERRS,ioos:station:NOAA.NERRS:rkblhwq:1,2017-02-01T01:45:00Z,26.0257,-81.7332,0.84,34.5,1111122 
NERRS,ioos:station:NOAA.NERRS:rkblhwq:1,2017-02-01T02:45:00Z,26.0257,-81.7332,0.76,34.5,1111122 
NERRS,ioos:station:NOAA.NERRS:rkblhwq:1,2017-02-01T03:45:00Z,26.0257,-81.7332,0.75,34.3,1111122 
NERRS,ioos:station:NOAA.NERRS:rkblhwq:1,2017-02-01T04:45:00Z,26.0257,-81.7332,0.83,34.3,1111122 
NERRS,ioos:station:NOAA.NERRS:rkblhwq:1,2017-02-01T05:45:00Z,26.0257,-81.7332,0.95,34.5,1111122 
NERRS,ioos:station:NOAA.NERRS:rkblhwq:1,2017-02-01T06:45:00Z,26.0257,-81.7332,1.08,34.4,1111122 
NERRS,ioos:station:NOAA.NERRS:rkblhwq:1,2017-02-01T07:45:00Z,26.0257,-81.7332,1.21,34.4,1111122 
NERRS,ioos:station:NOAA.NERRS:rkblhwq:1,2017-02-01T08:45:00Z,26.0257,-81.7332,1.31,34.4,1111122 
NERRS,ioos:station:NOAA.NERRS:rkblhwq:1,2017-02-01T09:45:00Z,26.0257,-81.7332,1.31,34.4,1111122 
NERRS,ioos:station:NOAA.NERRS:rkblhwq:1,2017-02-01T10:45:00Z,26.0257,-81.7332,1.2,34.4,1111122 
NERRS,ioos:station:NOAA.NERRS:rkblhwq:1,2017-02-01T11:45:00Z,26.0257,-81.7332,1.08,34.4,1111122 
NERRS,ioos:station:NOAA.NERRS:rkblhwq:1,2017-02-01T12:45:00Z,26.0257,-81.7332,0.96,34.4,1111122 
NERRS,ioos:station:NOAA.NERRS:rkblhwq:1,2017-02-01T13:45:00Z,26.0257,-81.7332,0.85,34.4,1111122 
NERRS,ioos:station:NOAA.NERRS:rkblhwq:1,2017-02-01T14:45:00Z,26.0257,-81.7332,0.75,34.3,1111122 
NERRS,ioos:station:NOAA.NERRS:rkblhwq:1,2017-02-01T15:45:00Z,26.0257,-81.7332,0.67,34.4,1111122 
NERRS,ioos:station:NOAA.NERRS:rkblhwq:1,2017-02-01T16:45:00Z,26.0257,-81.7332,0.71,34.2,1111122 
NERRS,ioos:station:NOAA.NERRS:rkblhwq:1,2017-02-01T17:45:00Z,26.0257,-81.7332,0.82,34.3,1111122 
NERRS,ioos:station:NOAA.NERRS:rkblhwq:1,2017-02-01T18:45:00Z,26.0257,-81.7332,0.96,34.4,1111122 
NERRS,ioos:station:NOAA.NERRS:rkblhwq:1,2017-02-01T19:45:00Z,26.0257,-81.7332,1.11,34.4,1111122 
NERRS,ioos:station:NOAA.NERRS:rkblhwq:1,2017-02-01T20:45:00Z,26.0257,-81.7332,1.25,34.4,1111122 
NERRS,ioos:station:NOAA.NERRS:rkblhwq:1,2017-02-01T21:45:00Z,26.0257,-81.7332,1.35,34.4,1111122 
NERRS,ioos:station:NOAA.NERRS:rkblhwq:1,2017-02-01T22:45:00Z,26.0257,-81.7332,1.33,34.4,1111122 
NERRS,ioos:station:NOAA.NERRS:rkblhwq:1,2017-02-01T23:45:00Z,26.0257,-81.7332,1.2,34.5,1111122 
NERRS,ioos:station:NOAA.NERRS:rkblhwq:1,2017-02-02T00:45:00Z,26.0257,-81.7332,1.08,34.5,1111122 
NERRS,ioos:station:NOAA.NERRS:rkblhwq:1,2017-02-02T01:45:00Z,26.0257,-81.7332,0.96,34.5,1111122 
NERRS,ioos:station:NOAA.NERRS:rkblhwq:1,2017-02-02T02:45:00Z,26.0257,-81.7332,0.85,34.5,1111122 
NERRS,ioos:station:NOAA.NERRS:rkblhwq:1,2017-02-02T03:45:00Z,26.0257,-81.7332,0.76,34.5,1111122 
NERRS,ioos:station:NOAA.NERRS:rkblhwq:1,2017-02-02T04:45:00Z,26.0257,-81.7332,0.74,34.3,1111122 
NERRS,ioos:station:NOAA.NERRS:rkblhwq:1,2017-02-02T05:45:00Z,26.0257,-81.7332,0.82,34.2,1111122 
NERRS,ioos:station:NOAA.NERRS:rkblhwq:1,2017-02-02T06:45:00Z,26.0257,-81.7332,0.93,34.4,1111122 
NERRS,ioos:station:NOAA.NERRS:rkblhwq:1,2017-02-02T07:45:00Z,26.0257,-81.7332,1.05,34.4,1111122 
NERRS,ioos:station:NOAA.NERRS:rkblhwq:1,2017-02-02T08:45:00Z,26.0257,-81.7332,1.16,34.4,1111122 
NERRS,ioos:station:NOAA.NERRS:rkblhwq:1,2017-02-02T09:45:00Z,26.0257,-81.7332,1.24,34.4,1111122 
NERRS,ioos:station:NOAA.NERRS:rkblhwq:1,2017-02-02T10:45:00Z,26.0257,-81.7332,1.26,34.4,1111122 
NERRS,ioos:station:NOAA.NERRS:rkblhwq:1,2017-02-02T11:45:00Z,26.0257,-81.7332,1.17,34.4,1111122 
NERRS,ioos:station:NOAA.NERRS:rkblhwq:1,2017-02-02T12:45:00Z,26.0257,-81.7332,1.06,34.4,1111122 
NERRS,ioos:station:NOAA.NERRS:rkblhwq:1,2017-02-02T13:45:00Z,26.0257,-81.7332,0.96,34.4,1111122 
NERRS,ioos:station:NOAA.NERRS:rkblhwq:1,2017-02-02T14:45:00Z,26.0257,-81.7332,0.85,34.2,1111122 
NERRS,ioos:station:NOAA.NERRS:rkblhwq:1,2017-02-02T15:45:00Z,26.0257,-81.7332,0.76,34.3,1111122 
NERRS,ioos:station:NOAA.NERRS:rkblhwq:1,2017-02-02T16:45:00Z,26.0257,-81.7332,0.72,34.4,1111122 
NERRS,ioos:station:NOAA.NERRS:rkblhwq:1,2017-02-02T17:45:00Z,26.0257,-81.7332,0.79,34.3,1111122 
NERRS,ioos:station:NOAA.NERRS:rkblhwq:1,2017-02-02T18:45:00Z,26.0257,-81.7332,0.9,34.4,1111122 
NERRS,ioos:station:NOAA.NERRS:rkblhwq:1,2017-02-02T19:45:00Z,26.0257,-81.7332,1.03,34.4,1111122 
NERRS,ioos:station:NOAA.NERRS:rkblhwq:1,2017-02-02T20:45:00Z,26.0257,-81.7332,1.16,34.4,1111122 
NERRS,ioos:station:NOAA.NERRS:rkblhwq:1,2017-02-02T21:45:00Z,26.0257,-81.7332,1.28,34.3,1111122 
NERRS,ioos:station:NOAA.NERRS:rkblhwq:1,2017-02-02T22:45:00Z,26.0257,-81.7332,1.35,34.4,1111122 
NERRS,ioos:station:NOAA.NERRS:rkblhwq:1,2017-02-02T23:45:00Z,26.0257,-81.7332,1.29,34.4,1111122 
NERRS,ioos:station:NOAA.NERRS:rkblhwq:1,2017-02-03T00:45:00Z,26.0257,-81.7332,1.17,34.4,1111122 
NERRS,ioos:station:NOAA.NERRS:rkblhwq:1,2017-02-03T01:45:00Z,26.0257,-81.7332,1.05,34.4,1111122 
NERRS,ioos:station:NOAA.NERRS:rkblhwq:1,2017-02-03T02:45:00Z,26.0257,-81.7332,0.92,34.4,1111122 
NERRS,ioos:station:NOAA.NERRS:rkblhwq:1,2017-02-03T03:45:00Z,26.0257,-81.7332,0.81,34.4,1111122 
NERRS,ioos:station:NOAA.NERRS:rkblhwq:1,2017-02-03T04:45:00Z,26.0257,-81.7332,0.71,34.4,1111122 
NERRS,ioos:station:NOAA.NERRS:rkblhwq:1,2017-02-03T05:45:00Z,26.0257,-81.7332,0.67,34.4,1111122 
NERRS,ioos:station:NOAA.NERRS:rkblhwq:1,2017-02-03T06:45:00Z,26.0257,-81.7332,0.74,34.1,1111122 
NERRS,ioos:station:NOAA.NERRS:rkblhwq:1,2017-02-03T07:45:00Z,26.0257,-81.7332,0.82,34.3,1111122 
NERRS,ioos:station:NOAA.NERRS:rkblhwq:1,2017-02-03T08:45:00Z,26.0257,-81.7332,0.92,34.4,1111122 
NERRS,ioos:station:NOAA.NERRS:rkblhwq:1,2017-02-03T09:45:00Z,26.0257,-81.7332,1.04,34.4,1111122 
NERRS,ioos:station:NOAA.NERRS:rkblhwq:1,2017-02-03T10:45:00Z,26.0257,-81.7332,1.15,34.3,1111122 
NERRS,ioos:station:NOAA.NERRS:rkblhwq:1,2017-02-03T11:45:00Z,26.0257,-81.7332,1.21,34.3,1111122 
NERRS,ioos:station:NOAA.NERRS:rkblhwq:1,2017-02-03T12:45:00Z,26.0257,-81.7332,1.14,34.4,1111122 
NERRS,ioos:station:NOAA.NERRS:rkblhwq:1,2017-02-03T13:45:00Z,26.0257,-81.7332,1.05,34.4,1111122 
NERRS,ioos:station:NOAA.NERRS:rkblhwq:1,2017-02-03T14:45:00Z,26.0257,-81.7332,0.95,34.4,1111122 
NERRS,ioos:station:NOAA.NERRS:rkblhwq:1,2017-02-03T15:45:00Z,26.0257,-81.7332,0.86,34.3,1111122 
NERRS,ioos:station:NOAA.NERRS:rkblhwq:1,2017-02-03T16:45:00Z,26.0257,-81.7332,0.81,34.4,1111122 
NERRS,ioos:station:NOAA.NERRS:rkblhwq:1,2017-02-03T17:45:00Z,26.0257,-81.7332,0.82,34.2,1111122 
NERRS,ioos:station:NOAA.NERRS:rkblhwq:1,2017-02-03T18:45:00Z,26.0257,-81.7332,0.9,34.3,1111122 
NERRS,ioos:station:NOAA.NERRS:rkblhwq:1,2017-02-03T19:45:00Z,26.0257,-81.7332,1.01,34.3,1111122 
NERRS,ioos:station:NOAA.NERRS:rkblhwq:1,2017-02-03T20:45:00Z,26.0257,-81.7332,1.13,34.4,1111122 
NERRS,ioos:station:NOAA.NERRS:rkblhwq:1,2017-02-03T21:45:00Z,26.0257,-81.7332,1.25,34.3,1111122 
NERRS,ioos:station:NOAA.NERRS:rkblhwq:1,2017-02-03T23:45:00Z,26.0257,-81.7332,1.36,34.3,1111122 
NERRS,ioos:station:NOAA.NERRS:rkblhwq:1,2017-02-04T00:45:00Z,26.0257,-81.7332,1.27,34.3,1111122 
NERRS,ioos:station:NOAA.NERRS:rkblhwq:1,2017-02-04T01:45:00Z,26.0257,-81.7332,1.16,34.3,1111122 
NERRS,ioos:station:NOAA.NERRS:rkblhwq:1,2017-02-04T02:45:00Z,26.0257,-81.7332,1.04,34.3,1111122 
NERRS,ioos:station:NOAA.NERRS:rkblhwq:1,2017-02-04T03:45:00Z,26.0257,-81.7332,0.91,34.3,1111122 
NERRS,ioos:station:NOAA.NERRS:rkblhwq:1,2017-02-04T04:45:00Z,26.0257,-81.7332,0.79,34.3,1111122 
NERRS,ioos:station:NOAA.NERRS:rkblhwq:1,2017-02-04T05:45:00Z,26.0257,-81.7332,0.68,34.4,1111122 
NERRS,ioos:station:NOAA.NERRS:rkblhwq:1,2017-02-04T06:45:00Z,26.0257,-81.7332,0.61,34.3,1111122 
NERRS,ioos:station:NOAA.NERRS:rkblhwq:1,2017-02-04T07:45:00Z,26.0257,-81.7332,0.63,34.1,1111122 
NERRS,ioos:station:NOAA.NERRS:rkblhwq:1,2017-02-04T08:45:00Z,26.0257,-81.7332,0.71,34.1,1111122 
NERRS,ioos:station:NOAA.NERRS:rkblhwq:1,2017-02-04T09:45:00Z,26.0257,-81.7332,0.8,34.3,1111122 
NERRS,ioos:station:NOAA.NERRS:rkblhwq:1,2017-02-04T10:45:00Z,26.0257,-81.7332,0.9,34.5,1111122 
NERRS,ioos:station:NOAA.NERRS:rkblhwq:1,2017-02-04T11:45:00Z,26.0257,-81.7332,1.0,34.4,1111122 
NERRS,ioos:station:NOAA.NERRS:rkblhwq:1,2017-02-04T12:45:00Z,26.0257,-81.7332,1.06,34.3,1111122 
NERRS,ioos:station:NOAA.NERRS:rkblhwq:1,2017-02-04T13:45:00Z,26.0257,-81.7332,1.03,34.4,1111122 
NERRS,ioos:station:NOAA.NERRS:rkblhwq:1,2017-02-04T14:45:00Z,26.0257,-81.7332,0.95,34.4,1111122 
NERRS,ioos:station:NOAA.NERRS:rkblhwq:1,2017-02-04T15:45:00Z,26.0257,-81.7332,0.87,34.4,1111122 
NERRS,ioos:station:NOAA.NERRS:rkblhwq:1,2017-02-04T16:45:00Z,26.0257,-81.7332,0.81,34.4,1111122 
NERRS,ioos:station:NOAA.NERRS:rkblhwq:1,2017-02-04T17:45:00Z,26.0257,-81.7332,0.8,34.3,1111122 
NERRS,ioos:station:NOAA.NERRS:rkblhwq:1,2017-02-04T18:45:00Z,26.0257,-81.7332,0.82,34.2,1111122 
NERRS,ioos:station:NOAA.NERRS:rkblhwq:1,2017-02-04T19:45:00Z,26.0257,-81.7332,0.89,34.4,1111122 
NERRS,ioos:station:NOAA.NERRS:rkblhwq:1,2017-02-04T20:45:00Z,26.0257,-81.7332,0.99,34.4,1111122 
NERRS,ioos:station:NOAA.NERRS:rkblhwq:1,2017-02-04T21:45:00Z,26.0257,-81.7332,1.11,34.4,1111122 
NERRS,ioos:station:NOAA.NERRS:rkblhwq:1,2017-02-04T22:45:00Z,26.0257,-81.7332,1.23,34.4,1111122 
NERRS,ioos:station:NOAA.NERRS:rkblhwq:1,2017-02-04T23:45:00Z,26.0257,-81.7332,1.32,34.3,1111122 
NERRS,ioos:station:NOAA.NERRS:rkblhwq:1,2017-02-05T00:45:00Z,26.0257,-81.7332,1.35,34.3,1111122 
NERRS,ioos:station:NOAA.NERRS:rkblhwq:1,2017-02-05T01:45:00Z,26.0257,-81.7332,1.28,34.4,1111122 
NERRS,ioos:station:NOAA.NERRS:rkblhwq:1,2017-02-05T02:45:00Z,26.0257,-81.7332,1.17,34.4,1111122 
NERRS,ioos:station:NOAA.NERRS:rkblhwq:1,2017-02-05T03:45:00Z,26.0257,-81.7332,1.06,34.4,1111122 
NERRS,ioos:station:NOAA.NERRS:rkblhwq:1,2017-02-05T04:45:00Z,26.0257,-81.7332,0.93,34.3,1111122 
NERRS,ioos:station:NOAA.NERRS:rkblhwq:1,2017-02-05T05:45:00Z,26.0257,-81.7332,0.81,34.4,1111122 
NERRS,ioos:station:NOAA.NERRS:rkblhwq:1,2017-02-05T06:45:00Z,26.0257,-81.7332,0.7,34.4,1111122 
NERRS,ioos:station:NOAA.NERRS:rkblhwq:1,2017-02-05T07:45:00Z,26.0257,-81.7332,0.61,34.4,1111122 
NERRS,ioos:station:NOAA.NERRS:rkblhwq:1,2017-02-05T08:45:00Z,26.0257,-81.7332,0.6,34.1,1111122 
NERRS,ioos:station:NOAA.NERRS:rkblhwq:1,2017-02-05T09:45:00Z,26.0257,-81.7332,0.68,34.1,1111122 
NERRS,ioos:station:NOAA.NERRS:rkblhwq:1,2017-02-05T10:45:00Z,26.0257,-81.7332,0.8,34.3,1111122 
NERRS,ioos:station:NOAA.NERRS:rkblhwq:1,2017-02-05T11:45:00Z,26.0257,-81.7332,0.93,34.5,1111122 
NERRS,ioos:station:NOAA.NERRS:rkblhwq:1,2017-02-05T12:45:00Z,26.0257,-81.7332,1.06,34.4,1111122 
NERRS,ioos:station:NOAA.NERRS:rkblhwq:1,2017-02-05T13:45:00Z,26.0257,-81.7332,1.16,34.3,1111122 
NERRS,ioos:station:NOAA.NERRS:rkblhwq:1,2017-02-05T14:45:00Z,26.0257,-81.7332,1.2,34.3,1111122 
NERRS,ioos:station:NOAA.NERRS:rkblhwq:1,2017-02-05T15:45:00Z,26.0257,-81.7332,1.14,34.4,1111122 
NERRS,ioos:station:NOAA.NERRS:rkblhwq:1,2017-02-05T16:45:00Z,26.0257,-81.7332,1.07,34.4,1111122 
NERRS,ioos:station:NOAA.NERRS:rkblhwq:1,2017-02-05T17:45:00Z,26.0257,-81.7332,1.01,34.5,1111122 
NERRS,ioos:station:NOAA.NERRS:rkblhwq:1,2017-02-05T18:45:00Z,26.0257,-81.7332,0.96,34.4,1111122 
NERRS,ioos:station:NOAA.NERRS:rkblhwq:1,2017-02-05T19:45:00Z,26.0257,-81.7332,0.92,34.4,1111122 
NERRS,ioos:station:NOAA.NERRS:rkblhwq:1,2017-02-05T20:45:00Z,26.0257,-81.7332,0.96,34.4,1111122 
NERRS,ioos:station:NOAA.NERRS:rkblhwq:1,2017-02-05T21:45:00Z,26.0257,-81.7332,1.05,34.5,1111122 
NERRS,ioos:station:NOAA.NERRS:rkblhwq:1,2017-02-05T22:45:00Z,26.0257,-81.7332,1.15,34.4,1111122 
NERRS,ioos:station:NOAA.NERRS:rkblhwq:1,2017-02-05T23:45:00Z,26.0257,-81.7332,1.26,34.4,1111122 
NERRS,ioos:station:NOAA.NERRS:rkblhwq:1,2017-02-06T00:45:00Z,26.0257,-81.7332,1.34,34.4,1111122 
NERRS,ioos:station:NOAA.NERRS:rkblhwq:1,2017-02-06T01:45:00Z,26.0257,-81.7332,1.35,34.5,1111122 
NERRS,ioos:station:NOAA.NERRS:rkblhwq:1,2017-02-06T02:45:00Z,26.0257,-81.7332,1.27,34.4,1111122 
NERRS,ioos:station:NOAA.NERRS:rkblhwq:1,2017-02-06T03:45:00Z,26.0257,-81.7332,1.16,34.5,1111122 
NERRS,ioos:station:NOAA.NERRS:rkblhwq:1,2017-02-06T04:45:00Z,26.0257,-81.7332,1.03,34.4,1111122 
NERRS,ioos:station:NOAA.NERRS:rkblhwq:1,2017-02-06T05:45:00Z,26.0257,-81.7332,0.89,34.5,1111122 
NERRS,ioos:station:NOAA.NERRS:rkblhwq:1,2017-02-06T06:45:00Z,26.0257,-81.7332,0.77,34.5,1111122 
NERRS,ioos:station:NOAA.NERRS:rkblhwq:1,2017-02-06T07:45:00Z,26.0257,-81.7332,0.64,34.6,1111122 
NERRS,ioos:station:NOAA.NERRS:rkblhwq:1,2017-02-06T08:45:00Z,26.0257,-81.7332,0.54,34.6,1111122 
NERRS,ioos:station:NOAA.NERRS:rkblhwq:1,2017-02-06T09:45:00Z,26.0257,-81.7332,0.49,34.6,1111122 
NERRS,ioos:station:NOAA.NERRS:rkblhwq:1,2017-02-06T10:45:00Z,26.0257,-81.7332,0.57,34.0,1111122 
NERRS,ioos:station:NOAA.NERRS:rkblhwq:1,2017-02-06T11:45:00Z,26.0257,-81.7332,0.69,34.2,1111122 
NERRS,ioos:station:NOAA.NERRS:rkblhwq:1,2017-02-06T12:45:00Z,26.0257,-81.7332,0.81,34.6,1111122 
NERRS,ioos:station:NOAA.NERRS:rkblhwq:1,2017-02-06T13:45:00Z,26.0257,-81.7332,0.95,34.6,1111122 
NERRS,ioos:station:NOAA.NERRS:rkblhwq:1,2017-02-06T14:45:00Z,26.0257,-81.7332,1.08,34.5,1111122 
NERRS,ioos:station:NOAA.NERRS:rkblhwq:1,2017-02-06T15:45:00Z,26.0257,-81.7332,1.18,34.4,1111122 
NERRS,ioos:station:NOAA.NERRS:rkblhwq:1,2017-02-06T16:45:00Z,26.0257,-81.7332,1.19,34.4,1111122 
NERRS,ioos:station:NOAA.NERRS:rkblhwq:1,2017-02-06T17:45:00Z,26.0257,-81.7332,1.12,34.5,1111122 
NERRS,ioos:station:NOAA.NERRS:rkblhwq:1,2017-02-06T18:45:00Z,26.0257,-81.7332,1.04,34.5,1111122 
NERRS,ioos:station:NOAA.NERRS:rkblhwq:1,2017-02-06T19:45:00Z,26.0257,-81.7332,0.98,34.5,1111122 
NERRS,ioos:station:NOAA.NERRS:rkblhwq:1,2017-02-06T20:45:00Z,26.0257,-81.7332,0.96,34.5,1111122 
NERRS,ioos:station:NOAA.NERRS:rkblhwq:1,2017-02-06T21:45:00Z,26.0257,-81.7332,1.02,34.5,1111122 
NERRS,ioos:station:NOAA.NERRS:rkblhwq:1,2017-02-06T23:45:00Z,26.0257,-81.7332,1.22,34.4,1111122 
NERRS,ioos:station:NOAA.NERRS:rkblhwq:1,2017-02-07T01:45:00Z,26.0257,-81.7332,1.41,34.3,1111122 
NERRS,ioos:station:NOAA.NERRS:rkblhwq:1,2017-02-07T02:45:00Z,26.0257,-81.7332,1.44,34.3,1111122 
NERRS,ioos:station:NOAA.NERRS:rkblhwq:1,2017-02-07T03:45:00Z,26.0257,-81.7332,1.39,34.4,1111122 
NERRS,ioos:station:NOAA.NERRS:rkblhwq:1,2017-02-07T04:45:00Z,26.0257,-81.7332,1.27,34.4,1111122 
NERRS,ioos:station:NOAA.NERRS:rkblhwq:1,2017-02-07T05:45:00Z,26.0257,-81.7332,1.13,34.5,1111122 
NERRS,ioos:station:NOAA.NERRS:rkblhwq:1,2017-02-07T06:45:00Z,26.0257,-81.7332,0.98,34.4,1111122 
NERRS,ioos:station:NOAA.NERRS:rkblhwq:1,2017-02-07T07:45:00Z,26.0257,-81.7332,0.83,34.6,1111122 
NERRS,ioos:station:NOAA.NERRS:rkblhwq:1,2017-02-07T08:45:00Z,26.0257,-81.7332,0.69,34.5,1111122 
NERRS,ioos:station:NOAA.NERRS:rkblhwq:1,2017-02-07T09:45:00Z,26.0257,-81.7332,0.57,34.6,1111122 
NERRS,ioos:station:NOAA.NERRS:rkblhwq:1,2017-02-07T10:45:00Z,26.0257,-81.7332,0.51,34.7,1111122 
NERRS,ioos:station:NOAA.NERRS:rkblhwq:1,2017-02-07T11:45:00Z,26.0257,-81.7332,0.6,34.1,1111122 
NERRS,ioos:station:NOAA.NERRS:rkblhwq:1,2017-02-07T12:45:00Z,26.0257,-81.7332,0.71,34.3,1111122 
NERRS,ioos:station:NOAA.NERRS:rkblhwq:1,2017-02-07T13:45:00Z,26.0257,-81.7332,0.84,34.9,1111122 
NERRS,ioos:station:NOAA.NERRS:rkblhwq:1,2017-02-07T14:45:00Z,26.0257,-81.7332,0.99,34.9,1111122 
NERRS,ioos:station:NOAA.NERRS:rkblhwq:1,2017-02-07T15:45:00Z,26.0257,-81.7332,1.13,34.9,1111122 
NERRS,ioos:station:NOAA.NERRS:rkblhwq:1,2017-02-07T16:45:00Z,26.0257,-81.7332,1.22,34.8,1111122 
NERRS,ioos:station:NOAA.NERRS:rkblhwq:1,2017-02-07T17:45:00Z,26.0257,-81.7332,1.19,34.9,1111122 
NERRS,ioos:station:NOAA.NERRS:rkblhwq:1,2017-02-07T18:45:00Z,26.0257,-81.7332,1.09,34.9,1111122 
NERRS,ioos:station:NOAA.NERRS:rkblhwq:1,2017-02-07T19:45:00Z,26.0257,-81.7332,0.99,34.9,1111122 
NERRS,ioos:station:NOAA.NERRS:rkblhwq:1,2017-02-07T20:45:00Z,26.0257,-81.7332,0.9,34.9,1111122 
NERRS,ioos:station:NOAA.NERRS:rkblhwq:1,2017-02-07T22:45:00Z,26.0257,-81.7332,0.9,34.9,1111122 
NERRS,ioos:station:NOAA.NERRS:rkblhwq:1,2017-02-07T23:45:00Z,26.0257,-81.7332,1.0,34.9,1111122 
NERRS,ioos:station:NOAA.NERRS:rkblhwq:1,2017-02-08T00:45:00Z,26.0257,-81.7332,1.12,34.9,1111122 
NERRS,ioos:station:NOAA.NERRS:rkblhwq:1,2017-02-08T01:45:00Z,26.0257,-81.7332,1.24,34.8,1111122 
NERRS,ioos:station:NOAA.NERRS:rkblhwq:1,2017-02-08T02:45:00Z,26.0257,-81.7332,1.37,34.8,1111122 
NERRS,ioos:station:NOAA.NERRS:rkblhwq:1,2017-02-08T03:45:00Z,26.0257,-81.7332,1.46,34.7,1111122 
NERRS,ioos:station:NOAA.NERRS:rkblhwq:1,2017-02-08T05:45:00Z,26.0257,-81.7332,1.34,34.7,1111122 
NERRS,ioos:station:NOAA.NERRS:rkblhwq:1,2017-02-08T07:45:00Z,26.0257,-81.7332,1.03,34.9,1111122 
NERRS,ioos:station:NOAA.NERRS:rkblhwq:1,2017-02-08T08:45:00Z,26.0257,-81.7332,0.88,34.9,1111122 
NERRS,ioos:station:NOAA.NERRS:rkblhwq:1,2017-02-08T09:45:00Z,26.0257,-81.7332,0.74,34.9,1111122 
NERRS,ioos:station:NOAA.NERRS:rkblhwq:1,2017-02-08T10:45:00Z,26.0257,-81.7332,0.62,34.9,1111122 
NERRS,ioos:station:NOAA.NERRS:rkblhwq:1,2017-02-08T11:45:00Z,26.0257,-81.7332,0.55,34.9,1111122 
NERRS,ioos:station:NOAA.NERRS:rkblhwq:1,2017-02-08T12:45:00Z,26.0257,-81.7332,0.59,34.5,1111122 
NERRS,ioos:station:NOAA.NERRS:rkblhwq:1,2017-02-08T13:45:00Z,26.0257,-81.7332,0.75,34.6,1111122 
NERRS,ioos:station:NOAA.NERRS:rkblhwq:1,2017-02-08T14:45:00Z,26.0257,-81.7332,0.97,34.7,1111122 
NERRS,ioos:station:NOAA.NERRS:rkblhwq:1,2017-02-08T15:45:00Z,26.0257,-81.7332,1.18,34.7,1111122 
NERRS,ioos:station:NOAA.NERRS:rkblhwq:1,2017-02-08T17:45:00Z,26.0257,-81.7332,1.35,34.7,1111122 
NERRS,ioos:station:NOAA.NERRS:rkblhwq:1,2017-02-08T18:45:00Z,26.0257,-81.7332,1.27,34.7,1111122 
NERRS,ioos:station:NOAA.NERRS:rkblhwq:1,2017-02-08T19:45:00Z,26.0257,-81.7332,1.18,34.7,1111122 
NERRS,ioos:station:NOAA.NERRS:rkblhwq:1,2017-02-08T20:45:00Z,26.0257,-81.7332,1.07,34.7,1111122 
NERRS,ioos:station:NOAA.NERRS:rkblhwq:1,2017-02-08T21:45:00Z,26.0257,-81.7332,0.97,34.8,1111122 
NERRS,ioos:station:NOAA.NERRS:rkblhwq:1,2017-02-08T22:45:00Z,26.0257,-81.7332,0.89,34.8,1111122 
NERRS,ioos:station:NOAA.NERRS:rkblhwq:1,2017-02-08T23:45:00Z,26.0257,-81.7332,0.9,34.8,1111122 
NERRS,ioos:station:NOAA.NERRS:rkblhwq:1,2017-02-09T00:45:00Z,26.0257,-81.7332,1.01,34.8,1111122 
NERRS,ioos:station:NOAA.NERRS:rkblhwq:1,2017-02-09T01:45:00Z,26.0257,-81.7332,1.15,34.7,1111122 
NERRS,ioos:station:NOAA.NERRS:rkblhwq:1,2017-02-09T02:45:00Z,26.0257,-81.7332,1.3,34.7,1111122 
NERRS,ioos:station:NOAA.NERRS:rkblhwq:1,2017-02-09T03:45:00Z,26.0257,-81.7332,1.42,34.6,1111122 
NERRS,ioos:station:NOAA.NERRS:rkblhwq:1,2017-02-09T04:45:00Z,26.0257,-81.7332,1.49,34.6,1111122 
NERRS,ioos:station:NOAA.NERRS:rkblhwq:1,2017-02-09T05:45:00Z,26.0257,-81.7332,1.45,34.7,1111122 
NERRS,ioos:station:NOAA.NERRS:rkblhwq:1,2017-02-09T06:45:00Z,26.0257,-81.7332,1.32,34.6,1111122 
NERRS,ioos:station:NOAA.NERRS:rkblhwq:1,2017-02-09T07:45:00Z,26.0257,-81.7332,1.15,34.8,1111122 
NERRS,ioos:station:NOAA.NERRS:rkblhwq:1,2017-02-09T08:45:00Z,26.0257,-81.7332,0.98,34.8,1111122 
NERRS,ioos:station:NOAA.NERRS:rkblhwq:1,2017-02-09T09:45:00Z,26.0257,-81.7332,0.82,34.8,1111122 
NERRS,ioos:station:NOAA.NERRS:rkblhwq:1,2017-02-09T10:45:00Z,26.0257,-81.7332,0.68,34.8,1111122 
NERRS,ioos:station:NOAA.NERRS:rkblhwq:1,2017-02-09T11:45:00Z,26.0257,-81.7332,0.56,34.8,1111122 
NERRS,ioos:station:NOAA.NERRS:rkblhwq:1,2017-02-09T12:45:00Z,26.0257,-81.7332,0.53,34.9,1111122 
NERRS,ioos:station:NOAA.NERRS:rkblhwq:1,2017-02-09T13:45:00Z,26.0257,-81.7332,0.64,34.5,1111122 
NERRS,ioos:station:NOAA.NERRS:rkblhwq:1,2017-02-16T15:45:00Z,26.0257,-81.7332,0.79,35.1,1111122 
NERRS,ioos:station:NOAA.NERRS:rkblhwq:1,2017-02-16T16:45:00Z,26.0257,-81.7332,0.78,35.1,1111122 
NERRS,ioos:station:NOAA.NERRS:rkblhwq:1,2017-02-16T17:45:00Z,26.0257,-81.7332,0.84,35.2,1111122 
NERRS,ioos:station:NOAA.NERRS:rkblhwq:1,2017-02-16T18:45:00Z,26.0257,-81.7332,0.94,35.3,1111122 
NERRS,ioos:station:NOAA.NERRS:rkblhwq:1,2017-02-16T19:45:00Z,26.0257,-81.7332,1.06,35.2,1111122 
NERRS,ioos:station:NOAA.NERRS:rkblhwq:1,2017-02-16T21:45:00Z,26.0257,-81.7332,1.22,35.1,1111122 
NERRS,ioos:station:NOAA.NERRS:rkblhwq:1,2017-02-16T22:45:00Z,26.0257,-81.7332,1.2,35.2,1111122 
NERRS,ioos:station:NOAA.NERRS:rkblhwq:1,2017-02-17T00:45:00Z,26.0257,-81.7332,1.02,35.1,1111122 
NERRS,ioos:station:NOAA.NERRS:rkblhwq:1,2017-02-17T01:45:00Z,26.0257,-81.7332,0.92,35.3,1111122 
NERRS,ioos:station:NOAA.NERRS:rkblhwq:1,2017-02-17T02:45:00Z,26.0257,-81.7332,0.81,35.2,1111122 
NERRS,ioos:station:NOAA.NERRS:rkblhwq:1,2017-02-17T03:45:00Z,26.0257,-81.7332,0.72,35.3,1111122 
NERRS,ioos:station:NOAA.NERRS:rkblhwq:1,2017-02-17T04:45:00Z,26.0257,-81.7332,0.66,35.2,1111122 
NERRS,ioos:station:NOAA.NERRS:rkblhwq:1,2017-02-17T05:45:00Z,26.0257,-81.7332,0.67,35.1,1111122 
NERRS,ioos:station:NOAA.NERRS:rkblhwq:1,2017-02-17T06:45:00Z,26.0257,-81.7332,0.75,35.1,1111122 
NERRS,ioos:station:NOAA.NERRS:rkblhwq:1,2017-02-17T07:45:00Z,26.0257,-81.7332,0.85,35.2,1111122 
NERRS,ioos:station:NOAA.NERRS:rkblhwq:1,2017-02-17T08:45:00Z,26.0257,-81.7332,0.95,35.3,1111122 
NERRS,ioos:station:NOAA.NERRS:rkblhwq:1,2017-02-17T09:45:00Z,26.0257,-81.7332,1.05,35.2,1111122 
NERRS,ioos:station:NOAA.NERRS:rkblhwq:1,2017-02-17T10:45:00Z,26.0257,-81.7332,1.11,35.2,1111122 
NERRS,ioos:station:NOAA.NERRS:rkblhwq:1,2017-02-17T11:45:00Z,26.0257,-81.7332,1.1,35.2,1111122 
NERRS,ioos:station:NOAA.NERRS:rkblhwq:1,2017-02-17T12:45:00Z,26.0257,-81.7332,1.03,35.2,1111122 
NERRS,ioos:station:NOAA.NERRS:rkblhwq:1,2017-02-17T13:45:00Z,26.0257,-81.7332,0.96,35.3,1111122 
NERRS,ioos:station:NOAA.NERRS:rkblhwq:1,2017-02-17T16:45:00Z,26.0257,-81.7332,0.85,35.2,1111122 
NERRS,ioos:station:NOAA.NERRS:rkblhwq:1,2017-02-17T17:45:00Z,26.0257,-81.7332,0.91,35.2,1111122 
NERRS,ioos:station:NOAA.NERRS:rkblhwq:1,2017-02-17T18:45:00Z,26.0257,-81.7332,0.98,35.2,1111122 
NERRS,ioos:station:NOAA.NERRS:rkblhwq:1,2017-02-17T20:45:00Z,26.0257,-81.7332,1.16,35.2,1111122 
NERRS,ioos:station:NOAA.NERRS:rkblhwq:1,2017-02-17T21:45:00Z,26.0257,-81.7332,1.23,35.1,1111122 
NERRS,ioos:station:NOAA.NERRS:rkblhwq:1,2017-02-18T01:45:00Z,26.0257,-81.7332,0.99,35.3,1111122 
NERRS,ioos:station:NOAA.NERRS:rkblhwq:1,2017-02-18T02:45:00Z,26.0257,-81.7332,0.89,35.2,1111122 
NERRS,ioos:station:NOAA.NERRS:rkblhwq:1,2017-02-18T03:45:00Z,26.0257,-81.7332,0.79,35.2,1111122 
NERRS,ioos:station:NOAA.NERRS:rkblhwq:1,2017-02-18T04:45:00Z,26.0257,-81.7332,0.71,35.3,1111122 
NERRS,ioos:station:NOAA.NERRS:rkblhwq:1,2017-02-18T05:45:00Z,26.0257,-81.7332,0.66,35.3,1111122 
NERRS,ioos:station:NOAA.NERRS:rkblhwq:1,2017-02-18T06:45:00Z,26.0257,-81.7332,0.69,35.1,1111122 
NERRS,ioos:station:NOAA.NERRS:rkblhwq:1,2017-02-18T07:45:00Z,26.0257,-81.7332,0.76,35.1,1111122 
NERRS,ioos:station:NOAA.NERRS:rkblhwq:1,2017-02-18T08:45:00Z,26.0257,-81.7332,0.86,35.2,1111122 
NERRS,ioos:station:NOAA.NERRS:rkblhwq:1,2017-02-18T09:45:00Z,26.0257,-81.7332,0.95,35.2,1111122 
NERRS,ioos:station:NOAA.NERRS:rkblhwq:1,2017-02-18T10:45:00Z,26.0257,-81.7332,1.03,35.2,1111122 
NERRS,ioos:station:NOAA.NERRS:rkblhwq:1,2017-02-18T11:45:00Z,26.0257,-81.7332,1.07,35.2,1111122 
NERRS,ioos:station:NOAA.NERRS:rkblhwq:1,2017-02-18T12:45:00Z,26.0257,-81.7332,1.06,35.2,1111122 
NERRS,ioos:station:NOAA.NERRS:rkblhwq:1,2017-02-18T13:45:00Z,26.0257,-81.7332,1.05,35.2,1111122 
NERRS,ioos:station:NOAA.NERRS:rkblhwq:1,2017-02-18T14:45:00Z,26.0257,-81.7332,1.02,35.2,1111122 
NERRS,ioos:station:NOAA.NERRS:rkblhwq:1,2017-02-18T15:45:00Z,26.0257,-81.7332,0.97,35.2,1111122 
NERRS,ioos:station:NOAA.NERRS:rkblhwq:1,2017-02-18T16:45:00Z,26.0257,-81.7332,0.94,35.2,1111122 
NERRS,ioos:station:NOAA.NERRS:rkblhwq:1,2017-02-18T17:45:00Z,26.0257,-81.7332,0.94,35.2,1111122 
NERRS,ioos:station:NOAA.NERRS:rkblhwq:1,2017-02-18T18:45:00Z,26.0257,-81.7332,0.99,35.2,1111122 
NERRS,ioos:station:NOAA.NERRS:rkblhwq:1,2017-02-18T19:45:00Z,26.0257,-81.7332,1.1,35.2,1111122 
NERRS,ioos:station:NOAA.NERRS:rkblhwq:1,2017-02-18T20:45:00Z,26.0257,-81.7332,1.19,35.1,1111122 
NERRS,ioos:station:NOAA.NERRS:rkblhwq:1,2017-02-18T21:45:00Z,26.0257,-81.7332,1.27,35.1,1111122 